Regional Weather Roundup
Issued by NWS Grand Forks, ND

Home | Current Version | Previous Version | Graphics & Text | Print | Product List | Glossary On
Versions: 1 2 3 4 5 6 7 8 9 10 11 12 13 14 15 16 17 18 19 20 21 22 23 24 25 26 27 28 29 30 31 32 33 34 35 36 37 38 39 40 41 42 43 44 45 46 47 48 49 50
000
ASUS43 KFGF 271710
RWRFGF
PRAIRIE TO PINES  WEATHER ROUNDUP
NATIONAL WEATHER SERVICE EASTERN NORTH DAKOTA/GRAND FORKS ND
1200 PM CDT TUE SEP 27 2016

 **SATELLITE DATA USED TO AUGMENT SKY COVER AT AUTOMATED STATIONS**
 *****  WEATHER ACROSS EASTERN NORTH DAKOTA  *****

CITY           SKY/WX    TMP DP  RH WIND       PRES   REMARKS
GRAND FORKS    FAIR      54  42  64 N21       29.91F
GRAND FRKS AFB FAIR      56  43  61 N12G22    29.91F
DEVILS LAKE    FAIR      56  37  49 N13       29.96F
FARGO          FAIR      59  41  51 NW18      29.90F
WAHPETON ARPT  FAIR      59  34  38 NW16G24   29.90F
$$

 ***** WEATHER ACROSS CENTRAL AND WESTERN NORTH DAKOTA  *****

CITY           SKY/WX    TMP DP  RH WIND       PRES   REMARKS
BISMARCK       SUNNY     62  39  42 CALM      30.00F
MINOT          FAIR      62  37  39 W3        29.99S
JAMESTOWN      FAIR      61  34  36 NW17      29.95F
MINOT AFB      FAIR      62  38  41 N5        29.98S
GARRISON         N/A     63  38  39 VRB3      29.99F
WILLISTON      SUNNY     62  47  57 SE3       29.97F
DICKINSON      SUNNY     67  48  50 W6        29.99F
HETTINGER      SUNNY     70  46  42 W6        30.02F
$$

 *****  OTHER AIRPORT OBSERVATIONS IN OUR AREA  *****

CITY           SKY/WX    TMP DP  RH WIND       PRES   REMARKS
WALHALLA       FAIR      52  48  87 N18G26    29.93F
GRAFTON AIRPOR PTSUNNY   52  45  76 NW15G23   29.93F
VALLEY CITY AR FAIR      59  36  41 NW20      29.95F
CANDO          FAIR      61  34  36 N15       29.99S
CAVALIER APRT  CLOUDY    50  41  71 N16G26    29.92F
GWINNER        FAIR      63  36  36 NW16      29.94F
SHEYENNE NWR     N/A     61  34  36 NW13      29.95
ROLLA          FAIR      57  32  38 N15       29.98S
 ***** THE ABOVE OBSERVATIONS ARE NON NWS ARE NOT QUALITY
       CONTROLLED AND MAY MIS-REPORT RAIN FOR SNOW...
$$

  *****  WEATHER ACROSS NORTHERN MINNESOTA  *****

CITY           SKY/WX    TMP DP  RH WIND       PRES   REMARKS
FLAG ISLAND    DRIZZLE   46  43  87 N17       29.81R
WARROAD        CLOUDY    48  43  81 N15       29.84R
ROSEAU         CLOUDY    52  45  76 N18G24    29.84R
HALLOCK        PTSUNNY   52  45  76 NW18G28   29.89S
THF RVR FALLS  CLOUDY    50  42  74 NW23      29.87S
BAUDETTE       LGT RAIN  47  45  93 NW16G22   29.80R FOG
WASKISH        LGT RAIN  46  45  93 NW10G16   29.80R
CROOKSTON      CLOUDY    52  43  71 N20G28    29.90S
GREENBUSH NDAW   N/A     52  45  76 NW15        N/A
$$
  *****  WEATHER ACROSS CENTRAL AND WEST MINNESOTA  *****

CITY           SKY/WX    TMP DP  RH WIND       PRES   REMARKS
FOSSTON        CLOUDY    48  41  76 NW15G23   29.86S
BEMIDJI        CLOUDY    47  42  81 NW13G24   29.81R
PARK RAPIDS    CLOUDY    51  40  65 NW14      29.82S
ELBOW LAKE     FAIR      56  39  53 NW21G28   29.89F
WADENA         PTSUNNY   52  41  66 NW14G22   29.84F
DETROIT LAKES  PTSUNNY   50  41  71 NW18G24   29.88S
MOORHEAD       FAIR      57  41  54 NW17G24   29.90F
FERGUS FALLS   FAIR      57  43  58 NW17G25   29.91S
MORRIS MN      FAIR      61  37  41 NW20G28   29.88F
STAPLES        PTSUNNY   52  39  62 NW13G23   29.83S
$$
  *****  WEATHER ELSEWHERE ACROSS MINNESOTA  *****

CITY           SKY/WX    TMP DP  RH WIND       PRES   REMARKS
DULUTH         LGT RAIN  50  46  86 NW14G24   29.69S
INTRNTL FALLS  LGT RAIN  47  44  90 NW10      29.75R
ELY            RAIN      45  43  93 NW9G20    29.67S
CLOQUET        RAIN      50  43  76 NW9G17    29.72S
WHEATON        NOT AVBL
BRAINERD       CLOUDY    51  42  71 NW17G24   29.80S
HIBBING        LGT RAIN  47  43  86 NW18G28   29.72R
ALEXANDRIA     FAIR      57  40  52 NW25G33   29.87F
SAINT CLOUD    FAIR      55  43  63 NW17G24   29.82F
MINNEAPOLIS    PTSUNNY   57  42  57 NW18G26   29.81F
$$

  *****  WEATHER ACROSS SOUTH DAKOTA  *****

CITY           SKY/WX    TMP DP  RH WIND       PRES   REMARKS
SIOUX FALLS    FAIR      68  40  35 W16G22    29.96F
BROOKINGS      NOT AVBL
WATERTOWN      FAIR      63  36  36 NW14      29.94F
HURON          SUNNY     68  39  34 NW12      29.96F
SISSETON         N/A     63  35  35 N17G23    29.91F
ABERDEEN       SUNNY     67  34  29 NW14      29.96F
MITCHELL       SUNNY     70  41  34 NW10      29.99F
PIERRE         SUNNY     69  44  40 W8        29.98F
MOBRIDGE       SUNNY     66  40  38 W6        29.97F
RAPID CITY     SUNNY     74  43  32 VRB5      30.06F
$$

  *****  SOME WEATHER IN NEARBY STATES *****

CITY           SKY/WX    TMP DP  RH WIND       PRES   REMARKS
GLASGOW MT     SUNNY     65  48  54 VRB3      29.96S
GREAT FALLS MT SUNNY     75  43  31 SW18      30.04S
CHEYENNE WY    SUNNY     74  25  16 N8        30.26S
SCOTTSBLUFF NE SUNNY     68  46  45 NW7       30.16F
OMAHA NE       FAIR      72  44  36 W7        30.00F
DES MOINES IA  FAIR      71  40  32 W18G25    29.94F
DAVENPORT IA   FAIR      69  31  24 W20G29    29.88F
CHICAGO IL     FAIR      66  32  28 W25G33    29.78F
EAU CLAIRE WI  CLOUDY    54  43  66 NW14      29.75S
LA CROSSE WI   CLOUDY    63  43  48 W21       29.77F
$$

  *****  SOME NATIONAL WEATHER *****

CITY           SKY/WX    TMP DP  RH WIND       PRES   REMARKS
LA GUARDIA NY  PTSUNNY   72  58  61 NW3       29.91F
RALEIGH NC     LGT RAIN  77  66  68 CALM      29.96F
ATLANTA GA     PTSUNNY   85  66  53 W8        29.97F
NEW ORLEANS LA PTSUNNY   85  73  67 N9        29.97F HX  91
OKLAHOMA CITY  FAIR      74  47  38 W7        30.14F
ALBUQUERQUE NM MOSUNNY   63  36  36 NW5       30.34R
SALT LAKE CITY MOSUNNY   68  47  46 CALM      30.23S
LOS ANGELES CA MOSUNNY   90  40  17 NE6       29.87R
BOISE ID       SUNNY     70  42  36 CALM      30.13S
SEATTLE WA     PTSUNNY   61  48  62 N13       30.20R
$$

*** WEATHER ACROSS MANITOBA...SASKATCHEWAN AND ONTARIO ***
                ***ONTARIO***

CITY           SKY/WX    TMP DP  RH WIND       PRES   REMARKS
GERALDTON      DRIZZLE   52  50  93 NE9       29.55R FOG
THUNDER BAY    PTSUNNY   54  48  82 NW8       29.55R
SIOUX LOOKOUT  DRIZZLE   46  45  93 N8        29.70S FOG
TORONTO        PTSUNNY   70  39  32 SW21      29.74F
BIG TROUT LK   CLOUDY    52  50  93 NE6       29.78S
PICKLE LAKE    DRIZZLE   48  48 100 N6        29.70R
DRYDEN         CLOUDY    46  43  87 N10       29.73S
KENORA         LGT RAIN  45  43  93 N10G18    29.79S FOG
$$
                *** MANITOBA***

CITY           SKY/WX    TMP DP  RH WIND       PRES   REMARKS
BRANDON        MOSUNNY   59  37  44 N8        29.96F
DAUPHIN        SUNNY     54  43  66 NW7       29.98F
ISLAND LAKE    DRIZZLE   45  45 100 N13G20    29.91R FOG
PILOT MOUND      N/A     54  41  62 NW14        N/A
THE PAS        MOSUNNY   50  41  71 N7        29.99S
THOMPSON       DRIZZLE   45  37  76 N6        30.00S
WINNIPEG       PTSUNNY   54  45  71 N16G24    29.89F
LYNN LAKE      FOG       34  34 100 SE7       30.00F VSB 1/4
CHURCHILL      CLOUDY    43  41  93 NE15      30.03R FOG
GILLAM         CLOUDY    45  41  87 NE18      29.95S
$$
                ***SASKATCHEWAN***

CITY           SKY/WX    TMP DP  RH WIND       PRES   REMARKS
ESTEVAN        MOSUNNY   64  39  39 SE7       29.97F
KINDERSLEY     MOSUNNY   63  46  55 VRB2      29.82S
LLOYDMINSTER   MOSUNNY   59  45  58 N23G30    29.85R
PRINCE ALBERT  MOSUNNY   64  43  45 S12G21    29.88F
REGINA         SUNNY     64  43  45 SE18      29.92F
YORKTON        SUNNY     61  41  48 SE3       29.98S
N. BATTLEFORD  SUNNY     61  45  55 SE9       29.82F
LA RONGE       MOSUNNY   59  43  55 SE10      29.89F
SASKATOON      MOSUNNY   64  46  52 S10       29.85F
SWIFT CURRENT  SUNNY     70  48  46 SW12      29.88S
$$
NOTE: THESE ARE AUTOMATED STATIONS WITH LIMITED QUALITY CONTROL
      "FAIR" INDICATES FEW OR NO CLOUDS BELOW 12,000 FEET WITH NO
      SIGNIFICANT WEATHER AND/OR OBSTRUCTIONS TO VISIBILITY.
      SKY/WX - SKY CONDITION AND SIGNIFICANT WEATHER.
      TMP - AIR TEMPERATURE.    DP   - DEWPOINT TEMPERATURE.
      RH  - RELATIVE HUMIDITY.  PRES - PRESSURE.
      HX  - HEAT INDEX.         WCI  - WIND CHILL INDEX.
$




USA.gov is the U.S. government's official web portal to all federal, state and local government web resources and services.